Overview Statistics Trail Chart Weather Telemetry Raw packets
 

This is the latest recevied weather packets stored in our database for station/object VE8SKI. If no packets are shown the sender has not sent any weather packets the latest 10 day(s).

<< 30 31 32 33 34 35 36 >>
Time Temp. Humidity Pressure Rain* Wind** Luminosity Snow
1777897680 -2.78° C 88% 1026.2 hPa 0 mm 1.34 m/s, 77° - -
1777897377 -2.78° C 88% 1026.1 hPa 0 mm 0.89 m/s, 101° - -
1777897077 -2.78° C 88% 1026.1 hPa 0 mm 1.79 m/s, 180° - -
1777896777 -2.78° C 88% 1026.1 hPa 0 mm 0 m/s - -
1777896478 -2.78° C 88% 1026.1 hPa 0 mm 1.34 m/s, 105° - -
1777896178 -2.78° C 88% 1026.2 hPa 0 mm 1.34 m/s, 158° - -
1777895878 -2.78° C 88% 1026.2 hPa 0 mm 0.45 m/s, 163° - -
1777895576 -2.78° C 88% 1026.1 hPa 0 mm 0.89 m/s, 163° - -
1777895276 -2.78° C 88% 1026.1 hPa 0 mm 0.45 m/s, 158° - -
1777894976 -2.78° C 88% 1026.1 hPa 0 mm 0 m/s - -
1777894677 -2.78° C 88% 1026.1 hPa 0 mm 0 m/s - -
1777894377 -2.78° C 88% 1026.1 hPa 0 mm 0.89 m/s, 163° - -
1777894077 -2.78° C 88% 1026.1 hPa 0 mm 0.89 m/s, 120° - -
1777893775 -2.78° C 88% 1026 hPa 0 mm 0.89 m/s, 84° - -
1777893475 -2.78° C 89% 1025.9 hPa 0 mm 0.89 m/s, 80° - -
1777893175 -2.78° C 89% 1025.9 hPa 0 mm 0.89 m/s, 91° - -
1777892875 -2.78° C 89% 1025.9 hPa 0 mm 0.89 m/s, 83° - -
1777892576 -2.78° C 89% 1025.9 hPa 0 mm 0.45 m/s, 90° - -
1777892276 -2.78° C 89% 1025.9 hPa 0 mm 0.89 m/s, 80° - -
1777891973 -2.78° C 89% 1025.9 hPa 0 mm 1.34 m/s, 83° - -
1777891674 -2.78° C 89% 1025.9 hPa 0 mm 1.34 m/s, 70° - -
1777891374 -2.78° C 89% 1025.8 hPa 0 mm 0.89 m/s, 46° - -
1777891074 -2.78° C 90% 1025.7 hPa 0 mm 0.89 m/s, 134° - -
1777890775 -2.78° C 90% 1025.7 hPa 0 mm 0.89 m/s, 100° - -
1777890475 -2.78° C 90% 1025.7 hPa 0 mm 0.45 m/s, 87° - -

* Rain latest hour (hover to see other rain measurements)
** Current wind speed in m/s (hover to see current wind gust speed)